FENGYUN 2G (40367 NORAD) Tracking and Keplerian Element Data

This shows tracking and keplerian element data for the satellite.

Feedback or suggestion? Click here.




ElementValue
Catalog40367
NameFENGYUN 2G
Epoch Orbit1372
Epoch Day266.56073138
Epoch Year2018
RAAN111.0324
Inclination0.6354
Eccentricity0.0002707
Argument of Perigee229.7219
Mean Anonmoly323.1218
Mean Motion1.00273485
Decay Rate-3.14E-06
L11 40367U 14090A 18266.56073138 -.00000314 00000-0 00000-0 0 9999
L22 40367 0.6354 111.0324 0002707 229.7219 323.1218 1.00273485 13723

Live tracking and technical data element details for FENGYUN 2G (NORAD 40367). FENGYUN 2G can be tracked NOW for your location showing map with azimuth and elevation plus other details from your city location.

Track the satellite on the map from your city or location and see movement details for azimuth, elevation, latitude, longitude, range, height, and movement on the map or in text.







IsCatalogInMostPopularTable: catalog: 40367, numindb: 105
Update: records affected: 1



GetName: 40367 FENGYUN 2G

Hit Count: updated at: Tue, 25 Sep 2018 15:52:08 GMT